Weather History for Meacham, OR

Change the Weather History Date:

Thursday, May 30, 2013

  Actual Average Record
Temperature  
Mean Temperature 45 °F -  
Max Temperature 54 °F 60 °F 73 °F (1997)
Min Temperature 35 °F 33 °F 27 °F (2000)
Degree Days  
Heating Degree Days 20    
Moisture  
Dew Point 37 °F    
Average Humidity 77    
Maximum Humidity 93    
Minimum Humidity 41    
Precipitation  
Precipitation 0.10 in - - ()
Sea Level Pressure  
Sea Level Pressure 30.07 in    
Wind  
Wind Speed 2 mph (WNW)    
Max Wind Speed 6 mph    
Max Gust Speed -    
Visibility 9 miles    
Events Rain    
Averages and records for this station are not official NWS values.
T = Trace of Precipitation, MM = Missing Value Source: NWS Daily Summary

Daily Weather History Graph

Daily Weather History Graph

Search for Another Location

Airport:

Trip Planner

Search our weather history database for the weather conditions in past years. The results will help you decide how hot, cold, wet, or windy it might be!

Date:

Astronomy

May. 30, 2013 Rise Set
Actual Time 5:09 AM PDT 8:33 PM PDT
Civil Twilight 4:32 AM PDT 9:10 PM PDT
Nautical Twilight 3:44 AM PDT 9:58 PM PDT
Astronomical Twilight 2:43 AM PDT 11:00 PM PDT
Moon 12:26 AM PDT (5/30) 11:35 AM PDT (5/30)
Length of Visible Light 16h 37m
Length of Day
15h 24m
Waning Gibbous, 61% of the Moon is Illuminated
May 30
Waning Gibbous
May 31
Last Quarter
Jun 8
New
Jun 16
First Quarter
Jun 23
Full

Hourly Weather History & Observations

Time (PDT) Temp. Windchill Dew Point Humidity Pressure Visibility Wind Dir Wind Speed Gust Speed Precip Events Conditions
12:56 AM 42.1 °F - 39.9 °F 92% 30.01 in 7.0 mi Calm Calm - 0.02 in Rain Light Rain
1:25 AM 42.8 °F - 39.2 °F 87% 29.99 in 6.0 mi Calm Calm - 0.01 in Rain Light Rain
1:54 AM 42.1 °F 39.2 °F 39.0 °F 89% 30.01 in 8.0 mi Variable 4.6 mph - 0.02 in Rain Light Rain
2:27 AM 41.0 °F 39.0 °F 39.2 °F 93% 29.99 in 7.0 mi Variable 3.5 mph - 0.01 in Rain Light Rain
2:56 AM 41.0 °F - 39.0 °F 93% 30.01 in 10.0 mi Calm Calm - 0.03 in Rain Light Rain
3:16 AM 41.0 °F - 39.2 °F 93% 29.99 in 10.0 mi Calm Calm - 0.00 in Rain Light Rain
3:56 AM 41.0 °F 38.0 °F 37.9 °F 89% 30.02 in 4.0 mi Variable 4.6 mph - 0.02 in Rain Light Rain
4:02 AM 41.0 °F - 37.4 °F 87% 30.00 in 6.0 mi Calm Calm - 0.01 in Rain Light Rain
4:39 AM 41.0 °F - 39.2 °F 93% 30.00 in 10.0 mi Calm Calm - 0.01 in   Overcast
4:56 AM 41.0 °F - 39.0 °F 93% 30.01 in 10.0 mi Calm Calm - 0.01 in   Overcast
5:06 AM 41.0 °F - 39.2 °F 93% 30.00 in 10.0 mi Calm Calm - N/A   Overcast
5:24 AM 41.0 °F - 39.2 °F 93% 30.01 in 10.0 mi Calm Calm - N/A   Overcast
5:56 AM 39.9 °F - 37.0 °F 89% 30.04 in 10.0 mi Calm Calm - N/A   Overcast
6:56 AM 41.0 °F - 37.0 °F 86% 30.04 in 10.0 mi Calm Calm - N/A   Overcast
7:20 AM 41.0 °F - 37.4 °F 87% 30.03 in 10.0 mi Calm Calm - N/A   Overcast
7:52 AM 42.1 °F - 37.9 °F 85% 30.06 in 10.0 mi Calm Calm - N/A   Overcast
8:11 AM 42.8 °F 40.1 °F 37.4 °F 81% 30.04 in 10.0 mi Variable 4.6 mph - N/A   Overcast
8:56 AM 42.1 °F 38.4 °F 37.0 °F 82% 30.08 in 10.0 mi Variable 5.8 mph - N/A   Overcast
9:16 AM 44.6 °F 43.1 °F 35.6 °F 71% 30.06 in 10.0 mi Variable 3.5 mph - N/A   Scattered Clouds
9:56 AM 46.9 °F - 36.0 °F 66% 30.07 in 10.0 mi Variable 5.8 mph - N/A   Partly Cloudy
10:56 AM 48.9 °F - 35.1 °F 59% 30.08 in 10.0 mi Calm Calm - N/A   Overcast
11:56 AM 48.9 °F - 35.1 °F 59% 30.09 in 10.0 mi Variable 3.5 mph - N/A   Overcast
12:56 PM 52.0 °F - 35.1 °F 53% 30.09 in 10.0 mi Variable 4.6 mph - N/A   Mostly Cloudy
1:56 PM 52.0 °F - 36.0 °F 54% 30.09 in 10.0 mi Variable 4.6 mph - N/A   Mostly Cloudy
2:56 PM 51.1 °F - 35.1 °F 54% 30.11 in 10.0 mi Variable 4.6 mph - N/A   Mostly Cloudy
3:56 PM 52.0 °F - 36.0 °F 54% 30.12 in 10.0 mi Calm Calm - N/A   Overcast
4:56 PM 52.0 °F - 34.0 °F 50% 30.11 in 10.0 mi Variable 3.5 mph - N/A   Overcast
5:56 PM 53.1 °F - 34.0 °F 48% 30.11 in 10.0 mi NW 5.8 mph - N/A   Scattered Clouds
6:56 PM 53.1 °F - 30.0 °F 41% 30.12 in 10.0 mi Variable 4.6 mph - N/A   Clear
7:56 PM 48.9 °F - 34.0 °F 56% 30.14 in 10.0 mi WNW 3.5 mph - N/A   Partly Cloudy
8:56 PM 43.0 °F - 36.0 °F 76% 30.17 in 10.0 mi Calm Calm - N/A   Clear
9:56 PM 39.9 °F - 36.0 °F 86% 30.19 in 10.0 mi Calm Calm - N/A   Clear
10:56 PM 37.0 °F - 34.0 °F 89% 30.21 in 10.0 mi Calm Calm - N/A   Clear
11:56 PM 35.1 °F - 32.0 °F 89% 30.22 in 10.0 mi Calm Calm - N/A   Clear